Regional Weather Roundup
Issued by NWS

Home | Current Version | Previous Version | Text Only | Print | Product List | Glossary On
Versions: 1 2 3 4 5 6 7 8 9 10 11 12 13 14 15 16 17 18 19 20 21 22 23 24 25 26 27 28 29 30 31 32 33 34 35 36 37 38 39 40 41 42 43 44 45 46 47 48 49 50
000
ASUS44 KJAN 201010
RWRMS

MISSISSIPPI HOURLY WEATHER ROUNDUP
NATIONAL WEATHER SERVICE JACKSON MS
500 AM CDT WED SEP 20 2017

NOTE: "FAIR: INDICATES FEW OR NO CLOUDS BELOW 12,000 FEET WITH NO
SIGNIFICANT WEATHER AND/OR OBSTRUCTIONS TO VISIBILITY.

MSZ001>002-007>008-010>013-018>021-025>028-034>036-201100-
NORTHWEST MISSISSIPPI

CITY           SKY/WX    TMP DP  RH WIND       PRES   REMARKS
BATESVILLE     FAIR      70  68  95 CALM      29.95S FOG
CLARKSDALE       N/A     73  73 100 CALM      29.93S
CLEVELAND      FAIR      74  74 100 S6        29.93R
GREENWOOD      CLEAR     71  70  96 CALM      29.94S FOG
GREENVILLE     PTCLDY    72  70  93 S5        29.92S
OXFORD         FAIR      72  70  94 SE5       29.96S
TUNICA           N/A     70  70 100 S3        29.93S FOG
WINONA         FAIR      69  69 100 CALM      29.95S FOG
$$

MSZ003>006-009-014>017-022>024-029>033-037>039-201100-
NORTHEAST MISSISSIPPI

CITY           SKY/WX    TMP DP  RH WIND       PRES   REMARKS
COLUMBUS AFB   CLEAR     70  70 100 CALM      29.96S
STARKVILLE       N/A     68  66  94 S3        29.98R FOG
TUPELO         CLEAR     72  68  87 E3        29.96S
$$

MSZ040-058-201100-
CENTRAL MISSISSIPPI

CITY           SKY/WX    TMP DP  RH WIND       PRES   REMARKS
JACKSON INTL   PTCLDY    73  72  96 CALM      29.96S
JACKSON HAWKNS PTCLDY    74  74 100 CALM      29.96S FOG
MADISON        FAIR      72  72 100 CALM      29.96S FOG
MERIDIAN KEY   CLEAR     71  70  96 S3        29.97F
MERIDIAN NAS   CLEAR     72  70  93 CALM      29.97S
RAYMOND        FAIR      73  72  94 CALM      29.95F FOG
VICKSBURG VKS  SUNNY     75  73  94 CALM      29.96S
$$

MSZ059>079-201100-
SOUTH MISSISSIPPI

CITY           SKY/WX    TMP DP  RH WIND       PRES   REMARKS
HATTIESBURG    CLEAR     72  72 100 CALM      29.97S
LAUREL         FAIR      71  71 100 CALM      29.97S
MCCOMB         PTCLDY    73  71  93 CALM      29.97S FOG
NATCHEZ        CLEAR     74  73  97 CALM      29.96F
PINE BELT      CLEAR     71  71 100 CALM      29.98R FOG
$$

MSZ080>082-201100-
COASTAL MISSISSIPPI

CITY           SKY/WX    TMP DP  RH WIND       PRES   REMARKS
BILOXI         MOCLDY    78  75  91 CALM      29.96R
PASCAGOULA     PTCLDY    73  71  93 CALM      29.97R
GULFPORT       CLEAR     76  75  97 W3        29.96S
$$

LAZ007>009-015>016-023>026-201100-
NORTHEAST LOUISIANA

CITY           SKY/WX    TMP DP  RH WIND       PRES   REMARKS
BASTROP        FAIR      74  73  98 CALM      29.94S
TALLULAH/VBURG PTCLDY    73  71  93 CALM      29.95S FOG
VIDALIA          N/A    N/A N/A N/A MISG      29.94F
$$



USA.gov is the U.S. government's official web portal to all federal, state and local government web resources and services.